[[{"header":{"parameterUnit":"m.s-1","parameterCategory":2,"la1":30.2992,"la2":30.254,"lo1":-89.0895,"lo2":-89.0443,"dy":0.0025,"dx":0.0025,"nx":19,"ny":19,"refTime":"2026-03-25T03:00:00:Z","depth":"0","parameterNumber":2,"parameterNumberName":"U-component_of_CURRENTS"},"data":[0,0,0,0.2921,0.2919,0.2879,0.2879,0.3001,0.3002,0,0,0,0,0,0,0,0,0,0,0,0.2932,0.2931,0.2921,0.2919,0.2879,0.2879,0.3001,0.3002,0,0,0,0,0,0,0,0,0,0,0,0.2932,0.2931,0.2931,0.2919,0.2879,0.2879,0.3,0.299,0,0,0,0,0,0,0,0,0,0,0.3009,0.3018,0.2932,0.2931,0.2919,0.2879,0.2879,0.2988,0.2991,0.3065,0,0.3042,0,0.3025,0.3013,0.3014,0,0,0,0.2931,0.3015,0.2975,0.293,0.2918,0.2879,0.2901,0.2988,0.2992,0.3069,0.3043,0.3046,0.3027,0.3014,0.3015,0.322,0.322,0,0,0.2933,0.2962,0.2972,0.2976,0.2891,0.2902,0.2899,0.2989,0.3008,0.3043,0.3048,0.3029,0.3015,0.3017,0.3219,0.322,0,0,0,0.2932,0.2964,0.2919,0.2973,0.2952,0.29,0.2898,0.3004,0.2979,0.3049,0.3031,0.3016,0.3018,0.3217,0.3219,0.3272,0,0,0,0.2933,0.2961,0.292,0.2943,0.2948,0.2961,0.2911,0.2973,0.2982,0.303,0.3016,0.302,0.3216,0.3218,0.3268,0.3318,0,0,0,0.2937,0.2964,0.2945,0.2943,0.2917,0.2958,0.294,0.2973,0.2972,0.3014,0.302,0.3216,0.3218,0.3265,0.3311,0.3451,0,0,0,0.2987,0.2954,0.2946,0.2937,0.2917,0.2932,0.2938,0.2978,0.3016,0.3017,0.3216,0.3219,0.3264,0.3307,0.3445,0.3446,0.3471,0,0,0.2966,0.2953,0.2951,0.2941,0.2943,0.294,0.3021,0.3069,0.3084,0.3199,0.3202,0.327,0.3311,0.345,0.3584,0.3605,0,0,0,0.296,0.2943,0.295,0.2954,0.2972,0.304,0.3072,0.3125,0.322,0.3112,0.3304,0.333,0.3415,0.3404,0.3422,0.3191,0.323,0.323,0.3229,0.2973,0.297,0.2974,0.2981,0.3027,0.3127,0.3216,0.3301,0.3289,0.3352,0.3397,0.3573,0.356,0.3574,0.3336,0.3411,0.3411,0.3411,0.3411,0.2935,0.2918,0.2984,0.2968,0.3075,0.3159,0.3358,0.3401,0.3587,0.3506,0.3586,0.3489,0.3597,0.3335,0.3415,0.3415,0.3414,0.3414,0.3414,0.2903,0.2887,0.2896,0.2934,0.3052,0.319,0.3408,0.3535,0.3648,0.3741,0.3767,0.3765,0.3521,0.3782,0.3783,0.3783,0.3784,0.3785,0.3785,0.2844,0.2853,0.2862,0.2909,0.2985,0.3154,0.3444,0.362,0.3821,0.3868,0.3868,0.3558,0.3688,0.3656,0.3798,0.3796,0.3794,0.3793,0.3792,0.275,0.2786,0.2806,0.2859,0.3032,0.3193,0.3451,0.3785,0.3981,0.4085,0.375,0.396,0.3964,0.3948,0.3924,0.4128,0.4128,0.4128,0.4128,0.2723,0.2727,0.2811,0.2915,0.3069,0.3238,0.3478,0.3707,0.3824,0.3765,0.3756,0.3592,0.3588,0.3559,0.3552,0.3515,0.3611,0.361,0.3609,0.2708,0.2748,0.2814,0.2915,0.3092,0.3276,0.3393,0.3387,0.347,0.3561,0.3438,0.346,0.3185,0.3199,0.312,0.3128,0.3057,0,0]},{"header":{"parameterUnit":"m.s-1","parameterCategory":2,"la1":30.2992,"la2":30.254,"lo1":-89.0895,"lo2":-89.0443,"dy":0.0025,"dx":0.0025,"nx":19,"ny":19,"refTime":"2026-03-25T03:00:00:Z","depth":"0","parameterNumber":3,"parameterNumberName":"V-component_of_CURRENTS"},"data":[0,0,0,0.0164,0.0164,0.0143,0.0143,0.0113,0.0113,0,0,0,0,0,0,0,0,0,0,0,0.017,0.017,0.0164,0.0164,0.0143,0.0143,0.0113,0.0113,0,0,0,0,0,0,0,0,0,0,0,0.017,0.017,0.017,0.0164,0.0143,0.0143,0.0113,0.0128,0,0,0,0,0,0,0,0,0,0,0.0148,0.0155,0.017,0.017,0.0163,0.0143,0.0143,0.0129,0.0127,0.0123,0,0.0124,0,0.0121,0.0111,0.0111,0,0,0,0.0157,0.0156,0.0154,0.017,0.0163,0.0143,0.0151,0.0128,0.0126,0.0121,0.0123,0.0122,0.012,0.0111,0.0111,0.015,0.0151,0,0,0.0159,0.0162,0.0155,0.0153,0.0163,0.0151,0.015,0.0127,0.0125,0.0123,0.0121,0.012,0.0111,0.0111,0.015,0.015,0,0,0,0.0166,0.0163,0.0161,0.0154,0.0152,0.0151,0.0149,0.0126,0.0126,0.0121,0.0119,0.0111,0.0111,0.0149,0.015,0.0244,0,0,0,0.0166,0.0168,0.0161,0.0163,0.0153,0.0139,0.0149,0.0128,0.0125,0.0119,0.0111,0.011,0.0148,0.0149,0.024,0.0327,0,0,0,0.017,0.0168,0.0168,0.0163,0.0157,0.0139,0.0138,0.0127,0.0124,0.0111,0.011,0.0148,0.0149,0.0237,0.0319,0.043,0,0,0,0.0171,0.0193,0.0168,0.0195,0.0158,0.0188,0.0138,0.0149,0.0145,0.0111,0.0148,0.015,0.0236,0.0314,0.0424,0.0614,0.0656,0,0,0.0205,0.0197,0.0216,0.0194,0.0243,0.019,0.0246,0.0212,0.0164,0.0153,0.0154,0.0242,0.0318,0.0429,0.0696,0.0736,0,0,0,0.0232,0.0252,0.0261,0.028,0.0282,0.0308,0.027,0.0261,0.025,0.0168,0.0244,0.0291,0.0357,0.0459,0.049,0.0337,0.0156,0.0156,0.0156,0.0288,0.0299,0.035,0.037,0.0388,0.0391,0.0414,0.0393,0.0322,0.0335,0.0367,0.0521,0.0629,0.0655,0.0492,0.0343,0.0343,0.0343,0.0344,0.0371,0.0411,0.0431,0.0484,0.0503,0.0545,0.0557,0.0526,0.0576,0.0471,0.0529,0.0553,0.0696,0.051,0.035,0.0349,0.0348,0.0347,0.0347,0.0419,0.0445,0.0472,0.0555,0.063,0.0651,0.0766,0.0731,0.0697,0.0745,0.0865,0.0865,0.0706,0.0771,0.0772,0.0773,0.0773,0.0774,0.0774,0.0456,0.0491,0.0563,0.0641,0.0707,0.0804,0.0891,0.0962,0.1051,0.1031,0.1032,0.0761,0.0653,0.0641,0.0788,0.0786,0.0784,0.0783,0.0782,0.0525,0.0534,0.0644,0.0712,0.0875,0.105,0.1118,0.1361,0.1414,0.1514,0.118,0.1184,0.119,0.1164,0.1166,0.144,0.144,0.144,0.144,0.0564,0.0581,0.0728,0.0855,0.1013,0.1165,0.1537,0.1753,0.1664,0.156,0.1357,0.1248,0.1228,0.1224,0.1197,0.1193,0.1468,0.1468,0.1467,0.0619,0.0655,0.0768,0.0893,0.1077,0.1322,0.1747,0.2122,0.1851,0.1439,0.1105,0.1104,0.0899,0.0881,0.083,0.0805,0.0782,0,0]}],[{"header":{"parameterUnit":"m.s-1","parameterCategory":2,"la1":30.2992,"la2":30.254,"lo1":-89.0895,"lo2":-89.0443,"dy":0.0025,"dx":0.0025,"nx":19,"ny":19,"refTime":"2026-03-25T03:00:00:Z","depth":"2","parameterNumber":2,"parameterNumberName":"U-component_of_CURRENTS"},"data":[0,0,0,0.2244,0.2245,0.2288,0.2288,0.2363,0.2363,0,0,0,0,0,0,0,0,0,0,0,0.2228,0.2228,0.2244,0.2245,0.2288,0.2288,0.2363,0.2363,0,0,0,0,0,0,0,0,0,0,0,0.2227,0.2228,0.2228,0.2245,0.2288,0.2288,0.2362,0.2324,0,0,0,0,0,0,0,0,0,0,0.2279,0.2262,0.2228,0.2228,0.2245,0.2288,0.2288,0.2322,0.2326,0.2351,0,0.2361,0,0.2368,0.2369,0.237,0,0,0,0.224,0.2258,0.2273,0.2228,0.2246,0.2288,0.2267,0.2324,0.2329,0.2357,0.2362,0.2364,0.2369,0.237,0.237,0.2494,0.2494,0,0,0.2238,0.2233,0.2269,0.2276,0.2263,0.2266,0.2268,0.2327,0.2334,0.2362,0.2366,0.237,0.2371,0.2371,0.2493,0.2494,0,0,0,0.2234,0.2231,0.2244,0.2273,0.2282,0.2267,0.227,0.2331,0.2336,0.2367,0.2371,0.2371,0.2372,0.2492,0.2493,0.2533,0,0,0,0.2233,0.223,0.2243,0.224,0.228,0.2304,0.2273,0.2332,0.2339,0.2371,0.2371,0.2373,0.2491,0.2493,0.2531,0.2552,0,0,0,0.2225,0.2229,0.2236,0.224,0.2261,0.2303,0.2311,0.2333,0.2342,0.237,0.2373,0.2491,0.2493,0.2528,0.2548,0.2641,0,0,0,0.2215,0.2225,0.2236,0.2257,0.226,0.2306,0.2311,0.2358,0.2387,0.2372,0.2492,0.2493,0.2527,0.2546,0.2637,0.2528,0.2536,0,0,0.222,0.2226,0.224,0.225,0.2287,0.2299,0.2359,0.2404,0.2419,0.2471,0.2474,0.2532,0.2548,0.264,0.2623,0.2628,0,0,0,0.2237,0.2243,0.2259,0.2283,0.2319,0.2365,0.2405,0.2439,0.2506,0.2444,0.2554,0.2563,0.262,0.2547,0.2552,0.2501,0.2501,0.2501,0.25,0.2219,0.2244,0.2265,0.2302,0.2343,0.2423,0.2482,0.2538,0.2542,0.259,0.2612,0.2731,0.2652,0.2655,0.2629,0.2629,0.2629,0.2629,0.2629,0.2214,0.2215,0.2265,0.2294,0.236,0.2423,0.2549,0.2594,0.2718,0.2675,0.2729,0.2612,0.2662,0.2633,0.2632,0.2632,0.2631,0.2631,0.2631,0.2182,0.2182,0.2211,0.2258,0.2343,0.2443,0.2579,0.269,0.2758,0.2824,0.2781,0.2778,0.2766,0.2867,0.2867,0.2868,0.2868,0.2869,0.2869,0.2124,0.2151,0.2164,0.2235,0.2283,0.2408,0.2619,0.2715,0.2814,0.2832,0.2831,0.2812,0.2804,0.2782,0.2877,0.2875,0.2874,0.2874,0.2873,0.2071,0.2089,0.2099,0.2136,0.2251,0.228,0.2516,0.2662,0.2811,0.2822,0.2848,0.2846,0.2833,0.2827,0.2806,0.2902,0.2902,0.2902,0.2902,0.2027,0.204,0.2045,0.209,0.2141,0.2233,0.223,0.2362,0.2578,0.2639,0.265,0.2531,0.2537,0.2501,0.2502,0.2472,0.2482,0.2481,0.248,0.1997,0.2003,0.1993,0.2039,0.2088,0.2093,0.1973,0.1961,0.2189,0.246,0.2544,0.288,0.2731,0.273,0.2692,0.2688,0.2646,0,0]},{"header":{"parameterUnit":"m.s-1","parameterCategory":2,"la1":30.2992,"la2":30.254,"lo1":-89.0895,"lo2":-89.0443,"dy":0.0025,"dx":0.0025,"nx":19,"ny":19,"refTime":"2026-03-25T03:00:00:Z","depth":"2","parameterNumber":3,"parameterNumberName":"V-component_of_CURRENTS"},"data":[0,0,0,0.0132,0.0132,0.0108,0.0108,0.0086,0.0086,0,0,0,0,0,0,0,0,0,0,0,0.0141,0.0141,0.0132,0.0132,0.0109,0.0108,0.0086,0.0086,0,0,0,0,0,0,0,0,0,0,0,0.0141,0.0141,0.0141,0.0132,0.0109,0.0108,0.0086,0.0101,0,0,0,0,0,0,0,0,0,0,0.0122,0.0129,0.0141,0.0141,0.0131,0.0109,0.0108,0.0102,0.01,0.01,0,0.0099,0,0.0094,0.0085,0.0085,0,0,0,0.0128,0.0131,0.0126,0.0141,0.0131,0.0109,0.0118,0.0101,0.0099,0.0098,0.0099,0.0098,0.0093,0.0085,0.0085,0.0111,0.0112,0,0,0.0129,0.0134,0.0128,0.0126,0.0129,0.0119,0.0117,0.01,0.0099,0.0099,0.0098,0.0093,0.0085,0.0085,0.0111,0.0112,0,0,0,0.0135,0.0135,0.0131,0.0127,0.0123,0.0118,0.0116,0.0099,0.0099,0.0097,0.0093,0.0085,0.0085,0.0111,0.0111,0.0191,0,0,0,0.0136,0.0139,0.0131,0.0134,0.0123,0.0109,0.0116,0.01,0.0098,0.0093,0.0085,0.0085,0.011,0.0111,0.0188,0.0257,0,0,0,0.0141,0.0139,0.0138,0.0134,0.0126,0.0109,0.0107,0.0099,0.0095,0.0085,0.0085,0.011,0.0111,0.0185,0.0251,0.0317,0,0,0,0.0144,0.0159,0.0138,0.0158,0.0126,0.015,0.0107,0.0116,0.0114,0.0085,0.011,0.0111,0.0184,0.0247,0.0313,0.0386,0.0411,0,0,0.0168,0.0162,0.0177,0.0158,0.0197,0.0153,0.0196,0.0167,0.0126,0.0115,0.0115,0.0189,0.025,0.0316,0.044,0.0463,0,0,0,0.0189,0.0204,0.0211,0.0227,0.0229,0.0251,0.0216,0.0204,0.0191,0.0129,0.0186,0.0222,0.0261,0.0296,0.0315,0.0116,0.0116,0.0115,0.0115,0.0232,0.0242,0.0284,0.03,0.0316,0.0318,0.0333,0.0308,0.025,0.0254,0.0283,0.0387,0.0424,0.0439,0.026,0.026,0.0261,0.0261,0.0261,0.0297,0.0328,0.0349,0.0392,0.0411,0.0446,0.045,0.042,0.0438,0.036,0.0393,0.0374,0.0465,0.0267,0.0266,0.0265,0.0265,0.0264,0.0264,0.0334,0.0354,0.0379,0.0451,0.0524,0.0544,0.0655,0.0611,0.0539,0.0567,0.0593,0.0592,0.0459,0.0574,0.0574,0.0575,0.0576,0.0576,0.0576,0.036,0.039,0.0456,0.0527,0.0601,0.0708,0.0782,0.0823,0.0797,0.0718,0.0717,0.0494,0.0483,0.0477,0.0586,0.0584,0.0583,0.0582,0.0581,0.0409,0.0422,0.0527,0.0603,0.0791,0.0983,0.1023,0.1111,0.1094,0.1086,0.0798,0.079,0.078,0.0764,0.0765,0.0942,0.0942,0.0942,0.0942,0.0441,0.0455,0.0613,0.0765,0.0962,0.112,0.1352,0.1331,0.1179,0.1033,0.1028,0.0956,0.094,0.0933,0.0913,0.0913,0.1129,0.113,0.113,0.0485,0.053,0.0657,0.0809,0.1054,0.1298,0.1511,0.1452,0.1189,0.1132,0.1008,0.0964,0.0842,0.0824,0.0793,0.0769,0.0761,0,0]}],[{"header":{"parameterUnit":"m.s-1","parameterCategory":2,"la1":30.2992,"la2":30.254,"lo1":-89.0895,"lo2":-89.0443,"dy":0.0025,"dx":0.0025,"nx":19,"ny":19,"refTime":"2026-03-25T03:00:00:Z","depth":"4","parameterNumber":2,"parameterNumberName":"U-component_of_CURRENTS"},"data":[0,0,0,0.1445,0.1448,0.1571,0.1572,0.1649,0.1649,0,0,0,0,0,0,0,0,0,0,0,0.1408,0.1409,0.1445,0.1448,0.1571,0.1572,0.1649,0.1649,0,0,0,0,0,0,0,0,0,0,0,0.1407,0.1409,0.1411,0.1449,0.1571,0.1572,0.1648,0.1574,0,0,0,0,0,0,0,0,0,0,0.1463,0.1441,0.1409,0.1411,0.145,0.1571,0.1572,0.1571,0.1578,0.1572,0,0.1609,0,0.1631,0.1653,0.1654,0,0,0,0.144,0.1435,0.1472,0.1411,0.1451,0.1571,0.1513,0.1576,0.1584,0.1582,0.161,0.1613,0.1632,0.1654,0.1654,0.1735,0.1735,0,0,0.1433,0.1421,0.1467,0.1478,0.1504,0.151,0.1517,0.1581,0.1594,0.161,0.1616,0.1634,0.1654,0.1655,0.1734,0.1735,0,0,0,0.1419,0.1416,0.1454,0.1474,0.1504,0.1513,0.1522,0.1592,0.1606,0.1617,0.1635,0.1654,0.1655,0.1734,0.1734,0.1786,0,0,0,0.1415,0.1409,0.1451,0.1444,0.1504,0.156,0.1531,0.1602,0.161,0.1634,0.1654,0.1656,0.1733,0.1734,0.1784,0.1771,0,0,0,0.1399,0.1407,0.1429,0.1443,0.15,0.156,0.1578,0.1605,0.1621,0.1654,0.1656,0.1733,0.1734,0.1782,0.1768,0.1836,0,0,0,0.1369,0.1402,0.1429,0.1472,0.1499,0.1565,0.1578,0.1641,0.1675,0.1655,0.1733,0.1734,0.1781,0.1767,0.1834,0.16,0,0,0,0.1386,0.1404,0.1427,0.1454,0.1511,0.1546,0.1611,0.1671,0.1683,0.1704,0.1707,0.1784,0.1768,0.1835,0.1663,0,0,0,0,0.1415,0.1433,0.1456,0.1501,0.1553,0.1604,0.1666,0.1697,0.1761,0.171,0.1791,0.1778,0.182,0.1677,0.1739,0.1739,0.1739,0.1739,0.1739,0.1395,0.1431,0.1466,0.152,0.1569,0.1656,0.1706,0.1758,0.1782,0.1827,0.1827,0.1914,0.1765,0.1852,0.1852,0.1852,0.1853,0.1853,0.1853,0.1398,0.1408,0.1467,0.152,0.1584,0.1651,0.1749,0.18,0.189,0.1874,0.1914,0.1747,0.1858,0.1857,0.1856,0.1856,0.1855,0.1855,0.1855,0.1362,0.1369,0.1424,0.1495,0.1566,0.1661,0.1733,0.1831,0.1916,0.196,0.1848,0.1952,0.1942,0.2016,0.2016,0.2017,0.2017,0.2017,0.2017,0.1295,0.1343,0.1374,0.1464,0.15,0.1594,0.1736,0.1801,0.1921,0.1857,0.1992,0.1969,0.1964,0.1952,0.2021,0.2021,0.202,0.202,0.2019,0.1233,0.1267,0.1293,0.1329,0.14,0.1443,0.1625,0.1716,0.1781,0.1797,0.1813,0.1822,0.1782,0.1781,0.1761,0.1777,0.1774,0.1771,0,0.117,0.1195,0.1192,0.1191,0.1205,0.1322,0.1356,0.1479,0.1606,0.1541,0.178,0.1791,0.1797,0.1745,0.174,0.1711,0,0,0,0.1116,0.1124,0.1081,0.1092,0.1076,0.1179,0.1347,0.1336,0.1596,0.1606,0.1702,0.172,0.19,0.2033,0.1993,0.1987,0.1966,0,0]},{"header":{"parameterUnit":"m.s-1","parameterCategory":2,"la1":30.2992,"la2":30.254,"lo1":-89.0895,"lo2":-89.0443,"dy":0.0025,"dx":0.0025,"nx":19,"ny":19,"refTime":"2026-03-25T03:00:00:Z","depth":"4","parameterNumber":3,"parameterNumberName":"V-component_of_CURRENTS"},"data":[0,0,0,0.0125,0.0125,0.0112,0.0112,0.0103,0.0103,0,0,0,0,0,0,0,0,0,0,0,0.0131,0.0131,0.0125,0.0125,0.0112,0.0112,0.0103,0.0103,0,0,0,0,0,0,0,0,0,0,0,0.0131,0.0131,0.0131,0.0125,0.0112,0.0112,0.0103,0.0111,0,0,0,0,0,0,0,0,0,0,0.0122,0.0127,0.0131,0.0131,0.0125,0.0112,0.0112,0.0111,0.011,0.0112,0,0.0112,0,0.0108,0.0103,0.0103,0,0,0,0.0123,0.0128,0.0124,0.0131,0.0125,0.0112,0.0117,0.011,0.011,0.0111,0.0112,0.0112,0.0108,0.0103,0.0103,0.0127,0.0127,0,0,0.0124,0.0128,0.0125,0.0124,0.0124,0.0118,0.0117,0.011,0.011,0.0112,0.0111,0.0108,0.0103,0.0103,0.0127,0.0127,0,0,0,0.0127,0.0128,0.0125,0.0125,0.0122,0.0117,0.0116,0.0111,0.011,0.0111,0.0108,0.0103,0.0103,0.0126,0.0127,0.019,0,0,0,0.0127,0.013,0.0126,0.0128,0.0122,0.0115,0.0117,0.011,0.0109,0.0108,0.0103,0.0103,0.0126,0.0127,0.0188,0.0232,0,0,0,0.0131,0.0131,0.013,0.0128,0.0123,0.0115,0.0113,0.011,0.0107,0.0103,0.0103,0.0126,0.0126,0.0185,0.0228,0.0267,0,0,0,0.0134,0.0144,0.013,0.0146,0.0123,0.0143,0.0113,0.0124,0.0126,0.0103,0.0126,0.0127,0.0185,0.0225,0.0264,0.0274,0,0,0,0.015,0.0146,0.0157,0.0145,0.0175,0.0144,0.0179,0.0164,0.0135,0.0128,0.0128,0.0188,0.0228,0.0266,0.0313,0,0,0,0,0.0166,0.0176,0.0182,0.0196,0.02,0.0221,0.0199,0.0191,0.0185,0.0138,0.0184,0.0208,0.023,0.0227,0.013,0.013,0.013,0.013,0.013,0.0194,0.0204,0.0236,0.0251,0.0267,0.0274,0.0286,0.027,0.0229,0.0235,0.0255,0.0325,0.0323,0.0241,0.0241,0.0241,0.0242,0.0242,0.0242,0.0237,0.026,0.0284,0.0319,0.0342,0.0374,0.0379,0.0359,0.0363,0.0312,0.033,0.0289,0.0248,0.0247,0.0246,0.0245,0.0245,0.0244,0.0244,0.0259,0.0274,0.0299,0.0362,0.0429,0.0454,0.0531,0.0498,0.0441,0.0453,0.0439,0.0375,0.0374,0.0456,0.0456,0.0457,0.0457,0.0457,0.0458,0.0269,0.0297,0.0353,0.0419,0.0488,0.0577,0.062,0.0626,0.0567,0.0528,0.0476,0.0398,0.0391,0.0386,0.0463,0.0462,0.0462,0.0461,0.0461,0.0293,0.0311,0.0398,0.0468,0.063,0.07,0.0742,0.0723,0.0722,0.0676,0.056,0.0554,0.0536,0.0526,0.0525,0.0646,0.0647,0.0647,0,0.0311,0.0324,0.0458,0.0589,0.0728,0.0789,0.0831,0.0819,0.072,0.0708,0.0705,0.0576,0.057,0.0549,0.0541,0.0541,0,0,0,0.0337,0.0377,0.0482,0.0613,0.0782,0.0831,0.0848,0.0825,0.0737,0.072,0.0659,0.0656,0.0566,0.0481,0.0437,0.0429,0.042,0,0]}]]